Location: Michelbach Markt
(48.1000°N, 15.7500°E)
Time: 12:39:51
(UTC+01:00)

X-37B - Pass Details

Date: 06 December 2023
Orbit: 277 x 277 km, 45.0° (Epoch: 01 November)

Event Time Altitude Azimuth Distance (km) Brightness Sun altitude
Rises 18:05:02 0° 267° (W) 1,916 5.7 -19.3°
Reaches altitude 10° 18:07:02 10° 257° (WSW) 1,102 4.1 -19.6°
Enters shadow 18:08:42 28° 222° (SW) 562 1.9 -19.9°
